Weather History for Galax, VA

Change the Weather History Date:

Wednesday, May 1, 2013

  Actual Average (KBLF) Record (KBLF)
Temperature  
Mean Temperature 60 °F 59 °F  
Max Temperature 64 °F 69 °F 86 °F (2007)
Min Temperature 55 °F 50 °F 27 °F (1963)
Degree Days  
Heating Degree Days 6 7  
Month to date heating degree days 7  
Since 1 July heating degree days 4437  
Cooling Degree Days 0 1  
Month to date cooling degree days 1  
Year to date cooling degree days 29  
Growing Degree Days 10 (Base 50)    
Moisture  
Dew Point 53 °F    
Average Humidity 80    
Maximum Humidity 94    
Minimum Humidity 63    
Precipitation  
Precipitation 0.00 in 0.12 in 1.45 in (1989)
Month to date precipitation 0.12  
Year to date precipitation 12.63  
Snow  
Snow 0.00 in - - ()
Month to date snowfall  
Since 1 July snowfall  
Snow Depth -    
Sea Level Pressure  
Sea Level Pressure 30.32 in    
Wind  
Wind Speed 6 mph (ENE)    
Max Wind Speed 13 mph    
Max Gust Speed 18 mph    
Visibility 10 miles    
Events Rain    
T = Trace of Precipitation, MM = Missing Value Source: NWS Daily Summary

Daily Weather History Graph

Daily Weather History Graph

Search for Another Location

Airport:

Trip Planner

Search our weather history database for the weather conditions in past years. The results will help you decide how hot, cold, wet, or windy it might be!

Date:

Astronomy

May. 01, 2013 Rise Set
Actual Time 6:29 AM EDT 8:12 PM EDT
Civil Twilight 6:01 AM EDT 8:39 PM EDT
Nautical Twilight 5:27 AM EDT 9:13 PM EDT
Astronomical Twilight 4:52 AM EDT 9:49 PM EDT
Moon 1:20 AM EDT (5/1) 12:05 PM EDT (5/1)
Length of Visible Light 14h 38m
Length of Day
13h 42m
Waning Gibbous, 59% of the Moon is Illuminated
May 1
Waning Gibbous
May 2
Last Quarter
May 9
New
May 18
First Quarter
May 25
Full

Hourly Weather History & Observations

Time (EDT) Temp. Dew Point Humidity Pressure Visibility Wind Dir Wind Speed Gust Speed Precip Events Conditions
12:15 AM 59.0 °F 55.4 °F 88% 30.27 in 10.0 mi East 3.5 mph - N/A   Overcast
12:35 AM 59.0 °F 55.4 °F 88% 30.26 in 10.0 mi ENE 3.5 mph - N/A   Overcast
12:55 AM 57.2 °F 55.4 °F 94% 30.27 in 10.0 mi NE 4.6 mph - N/A   Overcast
1:15 AM 57.2 °F 53.6 °F 88% 30.27 in 10.0 mi NE 5.8 mph - N/A   Overcast
1:35 AM 57.2 °F 53.6 °F 88% 30.26 in 10.0 mi NE 3.5 mph - N/A   Overcast
1:55 AM 57.2 °F 53.6 °F 88% 30.26 in 10.0 mi NE 3.5 mph - N/A   Overcast
2:15 AM 57.2 °F 53.6 °F 88% 30.26 in 10.0 mi ENE 3.5 mph - N/A   Overcast
2:35 AM 57.2 °F 53.6 °F 88% 30.26 in 10.0 mi NE 5.8 mph - N/A   Overcast
3:15 AM 57.2 °F 53.6 °F 88% 30.25 in 10.0 mi ENE 3.5 mph - N/A   Overcast
3:35 AM 57.2 °F 53.6 °F 88% 30.25 in 10.0 mi NE 8.1 mph - N/A   Overcast
3:55 AM 57.2 °F 51.8 °F 82% 30.25 in 10.0 mi ENE 9.2 mph - N/A   Overcast
4:15 AM 55.4 °F 51.8 °F 88% 30.26 in 10.0 mi NE 6.9 mph - N/A   Overcast
4:35 AM 55.4 °F 51.8 °F 88% 30.26 in 10.0 mi ENE 5.8 mph - N/A   Overcast
5:15 AM 55.4 °F 51.8 °F 88% 30.27 in 10.0 mi ENE 5.8 mph - N/A   Overcast
5:35 AM 55.4 °F 51.8 °F 88% 30.27 in 10.0 mi ENE 6.9 mph - N/A   Overcast
5:55 AM 55.4 °F 51.8 °F 88% 30.27 in 10.0 mi ENE 8.1 mph - N/A   Overcast
6:15 AM 55.4 °F 51.8 °F 88% 30.28 in 7.0 mi ENE 5.8 mph - N/A   Overcast
6:35 AM 55.4 °F 51.8 °F 88% 30.29 in 7.0 mi ENE 5.8 mph - N/A   Overcast
6:55 AM 55.4 °F 51.8 °F 88% 30.30 in 10.0 mi East 4.6 mph - N/A   Overcast
7:15 AM 55.4 °F 53.6 °F 94% 30.31 in 4.0 mi Calm Calm - N/A   Overcast
7:35 AM 55.4 °F 53.6 °F 94% 30.32 in 2.0 mi Calm Calm - N/A   Drizzle
8:15 AM 55.4 °F 53.6 °F 94% 30.33 in 2.5 mi Calm Calm - N/A Rain Light Rain
8:35 AM 55.4 °F 53.6 °F 94% 30.33 in 10.0 mi ENE 5.8 mph - N/A   Overcast
9:15 AM 57.2 °F 53.6 °F 88% 30.34 in 7.0 mi NE 8.1 mph - N/A   Overcast
9:35 AM 57.2 °F 53.6 °F 88% 30.33 in 10.0 mi NE 4.6 mph - N/A   Overcast
9:55 AM 57.2 °F 53.6 °F 88% 30.33 in 10.0 mi East 8.1 mph - N/A   Overcast
10:15 AM 59.0 °F 53.6 °F 82% 30.34 in 10.0 mi East 10.4 mph 16.1 mph N/A   Overcast
10:35 AM 60.8 °F 53.6 °F 77% 30.34 in 10.0 mi ENE 12.7 mph 18.4 mph N/A   Overcast
10:55 AM 60.8 °F 53.6 °F 77% 30.34 in 10.0 mi NE 11.5 mph 16.1 mph N/A   Overcast
11:15 AM 60.8 °F 53.6 °F 77% 30.35 in 10.0 mi ENE 4.6 mph - N/A   Overcast
11:35 AM 64.4 °F 53.6 °F 68% 30.35 in 10.0 mi NE 9.2 mph 16.1 mph N/A   Mostly Cloudy
11:55 AM 62.6 °F 53.6 °F 72% 30.35 in 10.0 mi ENE 11.5 mph 16.1 mph N/A   Mostly Cloudy
12:15 PM 60.8 °F 53.6 °F 77% 30.35 in 10.0 mi NE 8.1 mph - N/A   Mostly Cloudy
12:35 PM 60.8 °F 53.6 °F 77% 30.36 in 10.0 mi ENE 9.2 mph - N/A   Overcast
12:55 PM 60.8 °F 55.4 °F 82% 30.36 in 10.0 mi ENE 10.4 mph - N/A   Mostly Cloudy
1:15 PM 60.8 °F 53.6 °F 77% 30.36 in 10.0 mi ENE 11.5 mph - N/A   Mostly Cloudy
1:35 PM 60.8 °F 53.6 °F 77% 30.35 in 10.0 mi ENE 5.8 mph - N/A   Scattered Clouds
1:55 PM 62.6 °F 53.6 °F 72% 30.35 in 10.0 mi ENE 8.1 mph - N/A   Scattered Clouds
2:15 PM 62.6 °F 55.4 °F 77% 30.33 in 10.0 mi ENE 9.2 mph - N/A   Scattered Clouds
2:35 PM 64.4 °F 55.4 °F 73% 30.33 in 10.0 mi NE 5.8 mph - N/A   Scattered Clouds
3:15 PM 64.4 °F 55.4 °F 73% 30.32 in 10.0 mi NE 11.5 mph 16.1 mph N/A   Scattered Clouds
3:35 PM 64.4 °F 53.6 °F 68% 30.32 in 10.0 mi East 9.2 mph - N/A   Scattered Clouds
3:55 PM 64.4 °F 53.6 °F 68% 30.32 in 10.0 mi ENE 6.9 mph - N/A   Mostly Cloudy
4:15 PM 64.4 °F 53.6 °F 68% 30.31 in 10.0 mi ENE 9.2 mph - N/A   Mostly Cloudy
4:35 PM 64.4 °F 53.6 °F 68% 30.32 in 10.0 mi ENE 6.9 mph - N/A   Mostly Cloudy
5:15 PM 64.4 °F 53.6 °F 68% 30.32 in 10.0 mi ESE 5.8 mph - N/A   Overcast
5:35 PM 64.4 °F 53.6 °F 68% 30.32 in 10.0 mi East 9.2 mph - N/A   Overcast
5:55 PM 64.4 °F 53.6 °F 68% 30.32 in 10.0 mi East 6.9 mph - N/A   Overcast
6:15 PM 64.4 °F 53.6 °F 68% 30.32 in 10.0 mi East 6.9 mph 17.3 mph N/A   Overcast
6:35 PM 64.4 °F 53.6 °F 68% 30.32 in 10.0 mi East 12.7 mph - N/A   Overcast
7:15 PM 62.6 °F 53.6 °F 72% 30.32 in 10.0 mi East 12.7 mph 16.1 mph N/A   Overcast
7:35 PM 62.6 °F 51.8 °F 68% 30.33 in 10.0 mi East 6.9 mph - N/A   Overcast
7:55 PM 60.8 °F 51.8 °F 72% 30.33 in 10.0 mi East 9.2 mph - N/A   Overcast
8:15 PM 60.8 °F 50.0 °F 68% 30.34 in 10.0 mi East 9.2 mph - N/A   Overcast
8:35 PM 60.8 °F 48.2 °F 63% 30.35 in 10.0 mi East 9.2 mph 17.3 mph N/A   Overcast
8:55 PM 60.8 °F 48.2 °F 63% 30.35 in 10.0 mi East 9.2 mph - N/A   Overcast
9:35 PM 57.2 °F 50.0 °F 77% 30.37 in 10.0 mi East 8.1 mph - N/A   Overcast
9:55 PM 57.2 °F 51.8 °F 82% 30.38 in 10.0 mi East 9.2 mph - N/A   Overcast
10:35 PM 55.4 °F 51.8 °F 88% 30.38 in 10.0 mi East 8.1 mph - N/A   Overcast
10:55 PM 55.4 °F 51.8 °F 88% 30.38 in 10.0 mi East 10.4 mph - N/A   Overcast
11:35 PM 55.4 °F 51.8 °F 88% 30.38 in 10.0 mi East 10.4 mph - N/A   Overcast
11:55 PM 55.4 °F 51.8 °F 88% 30.37 in 10.0 mi ENE 9.2 mph - N/A   Overcast